Weather Roundup
Issued by NWS

Home | Current Version | Previous Version | Text Only | Print | Product List | Glossary On
Versions: 1 2 3 4 5 6 7 8 9 10 11 12 13 14 15 16 17 18 19 20 21 22 23 24 25 26 27 28 29 30 31 32 33 34 35 36 37 38 39 40 41 42 43 44 45 46 47 48 49 50
000
NZUS93 KARX 070210
HRRWXR

CURRENT HOURLY OBSERVATIONS ACROSS
MUCH OF THE UPPER MISSISSIPPI VALLEY
NATIONAL WEATHER SERVICE LA CROSSE WI
800 PM CST FRI MAR 06 2015


...SOUTHEAST MINNESOTA...


CITY           SKY/WX    TMP DP  RH WIND       PRES   REMARKS
ROCHESTER      PTCLDY    28  20  71 NW13      30.07R WCI  17
ROCHESTER/MAYO FAIR      32  20  60 W15       30.07R WCI  22
WINONA         PTCLDY    34  25  69 CALM      30.07S
AUSTIN         CLEAR     32  25  74 W5        30.08R WCI  27
ALBERT LEA     CLEAR     32  23  69 W5        30.08S WCI  27
DODGE CENTER   PTCLDY    30  23  74 W9        30.07R WCI  22
PRESTON        MOCLDY    30  23  75 W9        30.07S WCI  21
OWATONNA       CLEAR     28  21  74 W5        30.08S WCI  23
FARIBAULT      CLEAR     28  21  74 SW3       30.08S
$$

...ELSEWHERE IN MINNESOTA...


CITY           SKY/WX    TMP DP  RH WIND       PRES   REMARKS
MINNEAPOLIS    PTCLDY    30  17  58 W7        30.07S WCI  23
INTNL FALLS    PTCLDY    25  11  55 SW7       29.87F WCI  17
DULUTH         CLEAR     25   8  48 W7        29.94F WCI  17
RED WING       PTCLDY    30  18  59 CALM      30.07R
REDWOOD FALLS  PTCLDY    31  21  66 CALM      30.08F
MANKATO        CLEAR     30  21  69 W3        30.10R
FAIRMONT       CLEAR     30  23  74 CALM      30.08F
$$

...SOUTHWEST WISCONSIN...


CITY           SKY/WX    TMP DP  RH WIND       PRES   REMARKS
LA CROSSE      MOCLDY    30  22  72 SW5       30.07S WCI  25
PRAIRIE DU CHI MOCLDY    32  21  64 CALM      30.09S
BOSCOBEL       MOCLDY    28  19  69 CALM      30.10S
LONE ROCK      MOCLDY    20  14  77 E3        30.09F
PLATTEVILLE    MOCLDY    26  19  76 S8        30.09F WCI  17
FORT MC COY    MOCLDY    26  19  76 CALM      30.07S
CAMP DOUGLAS   MOCLDY    28  22  76 SW5       30.05F WCI  23
VIROQUA        FAIR      27  21  76 SW8       30.05S WCI  19
WIS DELLS      CLEAR     26  18  71 CALM      30.06F
$$

...ELSEWHERE IN WISCONSIN...


CITY           SKY/WX    TMP DP  RH WIND       PRES   REMARKS
MILWAUKEE      PTCLDY    24  15  68 SW7       30.12R WCI  16
MADISON        MOCLDY    26  17  68 VRB3      30.10S
GREEN BAY      CLEAR     22  14  71 S5        30.04R WCI  16
EAU CLAIRE     MOCLDY    28  14  55 W5        30.04S WCI  23
BLACK RVR FLS  FAIR      26  18  71 S5        30.05S WCI  20
MEDFORD        PTCLDY    22  12  67 SW5       30.00S WCI  15
WAUSAU         CLEAR     23  13  65 W6        30.00S WCI  16
WIS RAPIDS     PTCLDY    28  14  55 SW6       30.05S WCI  22
MARSHFIELD     MOCLDY    24  14  65 W6        30.02S WCI  17
RICE LAKE      PTCLDY    24  13  64 SW5       30.04S WCI  18
$$

...NORTHEAST IOWA...


CITY           SKY/WX    TMP DP  RH WIND       PRES   REMARKS
DECORAH        MOCLDY    32  25  74 SW5       30.06F WCI  27
MASON CITY     CLEAR     30  25  81 NW8       30.10S WCI  22
CHARLES CITY   CLOUDY    32  28  86 W7        30.09S WCI  26
OELWEIN        CLOUDY    28  23  80 NW8       30.10R WCI  20
$$

...ELSEWHERE IN IOWA...


CITY           SKY/WX    TMP DP  RH WIND       PRES   REMARKS
DES MOINES     CLOUDY    47  22  37 CALM      30.12R
IOWA CITY      PTCLDY    32  26  78 CALM      30.13F
FORT DODGE     PTCLDY    36  28  75 N5        30.11S WCI  32
$$

...NORTHERN ILLINOIS...


CITY           SKY/WX    TMP DP  RH WIND       PRES   REMARKS
CHICAGO-OHARE  PTCLDY    25  17  72 SW17G24   30.16F WCI  12
CHICAGO-MIDWAY PTCLDY    25  16  68 SW15G23   30.19F WCI  13
MOLINE         PTCLDY    36  25  64 SW6       30.13F WCI  31
ROCKFORD       MOCLDY    24  18  77 S7        30.15S WCI  16
PEORIA         CLEAR     29  21  72 S10       30.21F WCI  20
$$

NOTE: "FAIR" INDICATES FEW OR NO CLOUDS BELOW 12,000 FEET WITH NO
SIGNIFICANT WEATHER AND/OR OBSTRUCTIONS TO VISIBILITY. WIND
SPEEDS ARE IN MILES-PER-HOUR.



USA.gov is the U.S. government's official web portal to all federal, state and local government web resources and services.